IRNSS-1G (41469 NORAD) Tracking and Keplerian Element Data

This shows tracking and keplerian element data for the satellite.

Feedback or suggestion? Click here.




ElementValue
Catalog41469
NameIRNSS-1G
Epoch Orbit824
Epoch Day202.51878064
Epoch Year2018
RAAN255.3741
Inclination3.4099
Eccentricity0.0006284
Argument of Perigee203.9671
Mean Anonmoly156.2057
Mean Motion1.00273684
Decay Rate-3.46E-06
L11 41469U 16027A 18202.51878064 -.00000346 00000-0 00000-0 0 9996
L22 41469 3.4099 255.3741 0006284 203.9671 156.2057 1.00273684 8247

Live tracking and technical data element details for IRNSS-1G (NORAD 41469). IRNSS-1G can be tracked NOW for your location showing map with azimuth and elevation plus other details from your city location.

Track the satellite on the map from your city or location and see movement details for azimuth, elevation, latitude, longitude, range, height, and movement on the map or in text.







IsCatalogInMostPopularTable: catalog: 41469, numindb: 65
Update: records affected: 1



GetName: 41469 IRNSS-1G

Hit Count: updated at: Mon, 23 Jul 2018 07:33:20 GMT